CCA721 ZJSY-RCSS

Flight info

Callsign CCA721
Flight time N/A
Altitude 35000
Route PORAP1N PORAP W222 SAMAS A202 SIKOU/N0468F350 A202 BIGEX G581 MAGOG A1 HLG HLG1E
Aircraft B738/M-SDE2E3FGHIRWXY/LB1

Departure

Time N/A
Airport Sanya Phoenix International Airport (ZJSY)

Arrival

Time 2026-05-05 16:34
Airport Taipei Songshan International Airport (RCSS)
Time Latitude Longitude Altitude Speed Heading
2026-05-05 15:40 22.29446 115.78337 35021 ft 519 kts 86°
2026-05-05 15:41 22.29719 115.86078 35021 ft 520 kts 86°
2026-05-05 15:41 22.29927 115.93891 35019 ft 522 kts 87°
2026-05-05 15:42 22.30118 116.01727 35019 ft 522 kts 87°
2026-05-05 15:42 22.30312 116.09520 35012 ft 522 kts 87°
2026-05-05 15:43 22.30510 116.17350 35019 ft 522 kts 87°
2026-05-05 15:43 22.30706 116.25181 35014 ft 521 kts 87°
2026-05-05 15:44 22.30897 116.33009 35030 ft 522 kts 87°
2026-05-05 15:44 22.31085 116.40859 35005 ft 523 kts 87°
2026-05-05 15:45 22.31267 116.48649 35016 ft 522 kts 87°
2026-05-05 15:45 22.31446 116.56474 35018 ft 521 kts 88°
2026-05-05 15:46 22.31621 116.64284 35018 ft 520 kts 88°
2026-05-05 15:46 22.31793 116.72092 35020 ft 520 kts 88°
2026-05-05 15:47 22.31960 116.79840 35013 ft 519 kts 88°
2026-05-05 15:47 22.32123 116.87636 35021 ft 520 kts 88°
2026-05-05 15:48 22.32284 116.95443 35019 ft 520 kts 88°
2026-05-05 15:48 22.32441 117.03260 35012 ft 521 kts 88°
2026-05-05 15:49 22.32593 117.11037 35018 ft 522 kts 88°
2026-05-05 15:49 22.32743 117.18873 35000 ft 522 kts 88°
2026-05-05 15:50 22.32889 117.26718 35013 ft 522 kts 88°
2026-05-05 15:50 22.33031 117.34567 35010 ft 523 kts 88°
2026-05-05 15:51 22.33170 117.42422 35012 ft 523 kts 88°
2026-05-05 15:51 22.34259 117.50079 35013 ft 518 kts 69°
2026-05-05 15:52 22.37310 117.57038 35011 ft 510 kts 52°
2026-05-05 15:52 22.41232 117.63409 35009 ft 510 kts 52°
2026-05-05 15:53 22.45147 117.69804 35017 ft 511 kts 52°
2026-05-05 15:53 22.48991 117.76218 35016 ft 512 kts 53°
2026-05-05 15:54 22.52846 117.82699 35015 ft 513 kts 53°
2026-05-05 15:54 22.56705 117.89185 35010 ft 513 kts 53°
2026-05-05 15:55 22.60570 117.95681 35012 ft 513 kts 53°
2026-05-05 15:55 22.64423 118.02120 35010 ft 513 kts 52°
2026-05-05 15:56 22.68313 118.08598 35004 ft 513 kts 53°
2026-05-05 15:56 22.72196 118.15077 35010 ft 513 kts 53°
2026-05-05 15:57 22.76071 118.21561 35009 ft 513 kts 53°
2026-05-05 15:57 22.79943 118.28050 35012 ft 513 kts 53°
2026-05-05 15:58 22.83788 118.34499 35013 ft 513 kts 53°
2026-05-05 15:58 22.87656 118.40995 35005 ft 513 kts 53°
2026-05-05 15:59 22.91523 118.47500 35016 ft 514 kts 53°
2026-05-05 15:59 22.95393 118.54016 35016 ft 514 kts 53°
2026-05-05 16:00 22.99233 118.60505 35008 ft 514 kts 53°
2026-05-05 16:00 23.03087 118.67045 35001 ft 515 kts 53°
2026-05-05 16:01 23.06944 118.73598 35001 ft 515 kts 53°
2026-05-05 16:01 23.10798 118.80151 35033 ft 515 kts 54°
2026-05-05 16:02 23.14631 118.86677 35013 ft 516 kts 54°
2026-05-05 16:02 23.18494 118.93261 35003 ft 517 kts 54°
2026-05-05 16:03 23.22352 118.99847 34994 ft 517 kts 54°
2026-05-05 16:03 23.26212 119.06443 35005 ft 517 kts 54°
2026-05-05 16:04 23.30045 119.13003 35003 ft 517 kts 54°
2026-05-05 16:04 23.33900 119.19608 35006 ft 518 kts 54°
2026-05-05 16:05 23.37759 119.26228 34995 ft 518 kts 54°
2026-05-05 16:05 23.41616 119.32855 34994 ft 518 kts 54°
2026-05-05 16:06 23.45471 119.39487 34999 ft 518 kts 54°
2026-05-05 16:06 23.49296 119.46077 34999 ft 518 kts 54°
2026-05-05 16:07 23.53147 119.52719 35015 ft 519 kts 54°
2026-05-05 16:07 23.55067 119.56035 34888 ft 513 kts 55°
2026-05-05 16:07 23.56962 119.59310 34430 ft 510 kts 55°
2026-05-05 16:07 23.58867 119.62571 33785 ft 511 kts 53°
2026-05-05 16:08 23.61041 119.65632 32968 ft 510 kts 43°
2026-05-05 16:08 23.63504 119.68416 32252 ft 510 kts 41°
2026-05-05 16:08 23.66015 119.71149 31569 ft 510 kts 41°
2026-05-05 16:08 23.68504 119.73844 30915 ft 510 kts 41°
2026-05-05 16:09 23.71010 119.76580 30291 ft 509 kts 41°
2026-05-05 16:09 23.73498 119.79325 29609 ft 508 kts 41°
2026-05-05 16:09 23.75972 119.82079 28792 ft 508 kts 41°
2026-05-05 16:09 23.78446 119.84847 27840 ft 511 kts 42°
2026-05-05 16:10 23.80937 119.87640 26856 ft 515 kts 42°
2026-05-05 16:10 23.83438 119.90446 25877 ft 518 kts 42°
2026-05-05 16:10 23.85955 119.93273 25019 ft 519 kts 42°
2026-05-05 16:10 23.88458 119.96086 24394 ft 514 kts 42°
2026-05-05 16:11 23.90900 119.98832 23841 ft 507 kts 42°
2026-05-05 16:11 23.98122 120.06951 22315 ft 486 kts 42°
2026-05-05 16:12 24.00470 120.09591 21817 ft 481 kts 42°
2026-05-05 16:12 24.05055 120.14784 20832 ft 468 kts 43°
2026-05-05 16:13 24.11668 120.22304 19431 ft 451 kts 43°
2026-05-05 16:13 24.13830 120.24763 18977 ft 446 kts 43°
2026-05-05 16:13 24.15970 120.27197 18529 ft 442 kts 44°
2026-05-05 16:14 24.20190 120.32001 17562 ft 434 kts 44°
2026-05-05 16:14 24.24317 120.36743 16570 ft 426 kts 44°
2026-05-05 16:15 24.28405 120.41379 15608 ft 419 kts 44°
2026-05-05 16:15 24.32408 120.45898 14681 ft 413 kts 44°
2026-05-05 16:16 24.36389 120.50404 13744 ft 409 kts 44°
2026-05-05 16:16 24.40313 120.54854 12731 ft 403 kts 44°
2026-05-05 16:17 24.44162 120.59226 11961 ft 391 kts 45°
2026-05-05 16:17 24.46023 120.61343 11769 ft 379 kts 45°
2026-05-05 16:18 24.49555 120.65361 11507 ft 357 kts 45°
2026-05-05 16:18 24.51253 120.67292 11375 ft 347 kts 45°
2026-05-05 16:18 24.54516 120.71008 11115 ft 329 kts 45°
2026-05-05 16:19 24.56084 120.72795 10981 ft 321 kts 45°
2026-05-05 16:19 24.57590 120.74570 10865 ft 314 kts 46°
2026-05-05 16:19 24.60477 120.78060 10428 ft 307 kts 46°
2026-05-05 16:20 24.63314 120.81498 9905 ft 304 kts 45°
2026-05-05 16:20 24.66138 120.84915 9350 ft 301 kts 45°
2026-05-05 16:21 24.68937 120.88297 8808 ft 297 kts 45°
2026-05-05 16:22 24.73013 120.93228 8344 ft 278 kts 45°
2026-05-05 16:22 24.75533 120.96279 8186 ft 262 kts 46°
2026-05-05 16:23 24.77970 120.99227 7634 ft 263 kts 46°
2026-05-05 16:23 24.79193 121.00708 7406 ft 261 kts 46°
2026-05-05 16:23 24.81617 121.03645 6948 ft 258 kts 46°
2026-05-05 16:24 24.82819 121.05103 6736 ft 256 kts 46°
2026-05-05 16:24 24.84012 121.06549 6545 ft 255 kts 46°
2026-05-05 16:24 24.86395 121.09440 6248 ft 252 kts 46°
2026-05-05 16:25 24.87550 121.10844 5985 ft 251 kts 46°
2026-05-05 16:25 24.89892 121.13689 5644 ft 249 kts 46°
2026-05-05 16:25 24.91054 121.15099 5443 ft 249 kts 46°
2026-05-05 16:26 24.93297 121.17826 5334 ft 230 kts 47°
2026-05-05 16:26 24.95391 121.20369 4930 ft 220 kts 46°
2026-05-05 16:27 24.96420 121.21577 4662 ft 218 kts 45°
2026-05-05 16:27 24.97462 121.22789 4374 ft 216 kts 45°
2026-05-05 16:27 24.98486 121.23980 4181 ft 213 kts 46°
2026-05-05 16:27 24.99506 121.25166 3992 ft 213 kts 46°
2026-05-05 16:28 25.00524 121.26353 3793 ft 213 kts 46°
2026-05-05 16:28 25.01537 121.27534 3612 ft 212 kts 47°
2026-05-05 16:28 25.02537 121.28700 3425 ft 206 kts 47°
2026-05-05 16:28 25.03503 121.29827 3275 ft 199 kts 47°
2026-05-05 16:29 25.04439 121.30920 3196 ft 202 kts 47°
2026-05-05 16:29 25.05409 121.32054 3184 ft 203 kts 47°
2026-05-05 16:29 25.06374 121.33181 3169 ft 201 kts 47°
2026-05-05 16:29 25.07277 121.34328 3159 ft 197 kts 61°
2026-05-05 16:30 25.07563 121.35750 3127 ft 190 kts 90°
2026-05-05 16:30 25.07597 121.37219 2874 ft 192 kts 92°
2026-05-05 16:30 25.07572 121.38676 2645 ft 188 kts 93°
2026-05-05 16:30 25.07522 121.40105 2406 ft 184 kts 94°
2026-05-05 16:31 25.07470 121.41480 2188 ft 173 kts 94°
2026-05-05 16:31 25.07422 121.42736 1966 ft 162 kts 94°
2026-05-05 16:31 25.07377 121.43960 1743 ft 158 kts 94°
2026-05-05 16:31 25.07333 121.45160 1546 ft 157 kts 94°
2026-05-05 16:32 25.07288 121.46366 1341 ft 157 kts 94°
2026-05-05 16:32 25.07243 121.47565 1132 ft 156 kts 94°
2026-05-05 16:32 25.07199 121.48758 948 ft 155 kts 93°
2026-05-05 16:32 25.07154 121.49931 764 ft 156 kts 93°
2026-05-05 16:33 25.07110 121.51149 565 ft 157 kts 92°
2026-05-05 16:33 25.07068 121.52322 359 ft 155 kts 91°
2026-05-05 16:33 25.07022 121.53504 142 ft 154 kts 91°
2026-05-05 16:33 25.06980 121.54666 26 ft 145 kts 91°
2026-05-05 16:34 25.06949 121.55543 28 ft 83 kts 92°
2026-05-05 16:34 25.06937 121.55868 26 ft 24 kts 96°
2026-05-05 16:34 25.06880 121.56032 30 ft 22 kts 121°
2026-05-05 16:34 25.06831 121.56115 29 ft 9 kts 123°
2026-05-05 16:35 25.06785 121.56149 28 ft 8 kts 182°
2026-05-05 16:35 25.06750 121.56105 26 ft 8 kts 255°
2026-05-05 16:35 25.06737 121.56046 31 ft 8 kts 256°
2026-05-05 16:35 25.06724 121.55989 30 ft 8 kts 255°
2026-05-05 16:36 25.06710 121.55934 26 ft 7 kts 255°
2026-05-05 16:36 25.06698 121.55880 30 ft 7 kts 255°
2026-05-05 16:36 25.06686 121.55828 27 ft 7 kts 255°
2026-05-05 16:36 25.06673 121.55777 30 ft 7 kts 255°
2026-05-05 16:37 25.06659 121.55714 28 ft 10 kts 255°
2026-05-05 16:37 25.06639 121.55630 26 ft 13 kts 255°
2026-05-05 16:37 25.06615 121.55529 30 ft 14 kts 255°
2026-05-05 16:37 25.06592 121.55432 31 ft 13 kts 256°
2026-05-05 16:38 25.06579 121.55335 30 ft 13 kts 268°
2026-05-05 16:38 25.06576 121.55240 26 ft 12 kts 268°
2026-05-05 16:38 25.06574 121.55146 26 ft 12 kts 268°
2026-05-05 16:38 25.06572 121.55081 26 ft 7 kts 269°
2026-05-05 16:39 25.06546 121.55048 26 ft 6 kts 189°
2026-05-05 16:39 25.06502 121.55048 28 ft 6 kts 178°
2026-05-05 16:39 25.06488 121.55049 29 ft 1 kts 178°
2026-05-05 16:39 25.06484 121.55049 29 ft 0 kts 178°
2026-05-05 16:40 25.06483 121.55049 26 ft 0 kts 178°
2026-05-05 16:41 25.06485 121.55049 26 ft 0 kts 178°
2026-05-05 16:41 25.06483 121.55049 26 ft 0 kts 178°
2026-05-05 16:42 25.06484 121.55049 26 ft 0 kts 178°
2026-05-05 16:42 25.06483 121.55049 26 ft 0 kts 178°